Showing default

DROID-001, 56965

Orbit data source: Space-Track

DROID-001, 56965 is a payload satellite owned by Turion Space (US) in SSO that was launched on Mon, 12 Jun 2023 UTC via an FALCON 9 launch vehicle from the Air Force Western Test Range (AFWTR). Payload-class satellites include a variety of spacecraft equipped with specific instruments for various scientific and technological missions. These include communications satellites like Starlink; space stations such as the ISS; scientific satellites like the Hubble; Earth observation satellites from companies like Planet Labs, Umbra, and HawkEye 360; GPS; miniature CubeSats for education and research; and military/defense satellites.

Loading next visibility...
Identifier
56965, 2023-084AK
Orbit
SSO
Country
Flag of USUS
Related business
Manufacturer
NanoAvionics
Mission
Operational Commercial Technology
Bus & Motor
CUBESAT MP42H, Unknown motor
Mass
32 kg wet, 32 kg dry
Launch date (UTC)
2023-06-12 (2 years ago)
Launch vehicle
FALCON 9
Launch site
Air Force Western Test Range (AFWTR)
Object type
Payload
Rocket body
Debris
Shape & HBR
Box + 2 Pan, 0.5 m
Radar Cross Section
0.257 m², Medium (>0.1 m² and < 1m²)

Expand to show TLE details & history
Last TLE update: 1 day ago

TLE from 1 day ago
0 DROID-001
1 56965U 23084AK  25295.35902244  .00081082  00000-0  98228-3 0  9991
2 56965  97.5840  76.0998 0004658  26.9517 333.1980 15.60378152131862
Epoch: 2025-10-22T08:36Z
TLE epoch observation values (Epoch: 2025-10-22T08:36:59.538Z)
Latitude
-0.0001°
Longitude
-84.18203°
Altitude
386.891 km
Speed
7.68 km/s
True Right ascension
05h 04m 23s
True Declination
0° 00' 00"
Sunlit
Object was in full shadow at epoch
Visualization orbit readout
Latitude
Unknown
Longitude
Unknown
Altitude
Unknown
Speed
Unknown
Apparent Right ascension
Unknown
Apparent Declination
Unknown
Sunlit
N/A
Visualization observer readout
Local Sidereal Time
14:13:59
Azimuth
Unknown
Elevation
Unknown
Doppler factor
Unknown
Orbital elements
Apogee altitude
386.634 km
Perigee altitude
380.334 km
Semi-major axis
6,761.621 km
Eccentricity
0.00047
Inclination
97.584°
RAAN
76.0998°
Arg. of periapsis
26.9517°
True anomaly
333.17392°
Mean anomaly
333.198°
Eccentric anomaly
333.18596°
Mean motion
3.90361 °/min
Orbital period
92.22 mins
BSTAR
0.00098228
Loading maneuver chart data...
Computing Atmospheric mass density...

Documentation

Showing up to 5 results
|